| time (UTC) | temp F | wind direction | speed MPH | gust MPH | rain 1hr in | rain 24hr in | rain mn in | humidity % | barometer mb |
| 20260902094652 | 83 | 355 | 2.0 | 6.0 | 0.00 | 0.00 | 0.00 | 60 | 1022.1 |
| 20260902093139 | 82 | 360 | 3.0 | 5.0 | 0.00 | 0.00 | 0.00 | 63 | 1022.2 |
| 20260902091652 | 80 | 55 | 0.0 | 5.0 | 0.00 | 0.00 | 0.00 | 66 | 1022.2 |
| 20260902090154 | 79 | 20 | 1.0 | 6.0 | 0.00 | 0.00 | 0.00 | 69 | 1022.3 |
| 20260902084654 | 77 | 20 | 1.0 | 5.0 | 0.00 | 0.00 | 0.00 | 70 | 1022.2 |
| 20260902083142 | 76 | 32 | 2.0 | 6.0 | 0.00 | 0.00 | 0.00 | 73 | 1022.2 |
| 20260902081654 | 75 | 36 | 3.0 | 6.0 | 0.00 | 0.00 | 0.00 | 74 | 1022.2 |
| 20260902080155 | 73 | 355 | 2.0 | 8.0 | 0.00 | 0.00 | 0.00 | 77 | 1022.2 |
| 20260902074651 | 72 | 5 | 5.0 | 8.0 | 0.00 | 0.00 | 0.00 | 79 | 1022.3 |
| 20260902073141 | 71 | 5 | 2.0 | 7.0 | 0.00 | 0.00 | 0.00 | 81 | 1022.3 |
| 20260902071654 | 70 | 36 | 3.0 | 6.0 | 0.00 | 0.00 | 0.00 | 83 | 1022.3 |
| 20260902070148 | 69 | 350 | 3.0 | 6.0 | 0.00 | 0.00 | 0.00 | 85 | 1022.4 |
| 20260902064651 | 68 | 333 | 3.0 | 5.0 | 0.00 | 0.00 | 0.00 | 86 | 1022.2 |
| 20260902063145 | 67 | 17 | 2.0 | 6.0 | 0.00 | 0.00 | 0.00 | 89 | 1022.0 |
| 20260902060153 | 65 | 5 | 2.0 | 5.0 | 0.00 | 0.00 | 0.00 | 90 | 1021.8 |
| 20260902054655 | 65 | 10 | 2.0 | 5.0 | 0.00 | 0.00 | 0.00 | 90 | 1021.7 |
| 20260902053142 | 65 | 24 | 0.0 | 5.0 | 0.00 | 0.00 | 0.00 | 90 | 1021.6 |
| 20260902051654 | 65 | 20 | 1.0 | 5.0 | 0.00 | 0.00 | 0.00 | 90 | 1021.6 |
| 20260902044654 | 65 | 22 | 3.0 | 5.0 | 0.00 | 0.00 | 0.00 | 90 | 1021.2 |
| 20260902043142 | 66 | 71 | 2.0 | 6.0 | 0.00 | 0.00 | 0.00 | 90 | 1021.2 |
| 20260902041651 | 66 | 31 | 1.0 | 5.0 | 0.00 | 0.00 | 0.00 | 90 | 1021.3 |
| 20260902040151 | 66 | 20 | 2.0 | 5.0 | 0.00 | 0.00 | 0.00 | 90 | 1021.3 |
| 20260902034653 | 66 | 32 | 1.0 | 4.0 | 0.00 | 0.00 | 0.00 | 90 | 1021.3 |
| 20260902033140 | 66 | 32 | 1.0 | 4.0 | 0.00 | 0.00 | 0.00 | 89 | 1021.3 |
| 20260902031652 | 66 | 51 | 2.0 | 4.0 | 0.00 | 0.00 | 0.00 | 89 | 1021.4 |
| 20260902024656 | 67 | 43 | 0.0 | 3.0 | 0.00 | 0.00 | 0.00 | 89 | 1021.3 |
| 20260902023143 | 67 | 43 | 0.0 | 0.0 | 0.00 | 0.00 | 0.00 | 88 | 1021.4 |
| 20260902021653 | 67 | 43 | 1.0 | 6.0 | 0.00 | 0.00 | 0.00 | 88 | 1021.3 |
| 20260902020159 | 67 | 5 | 1.0 | 4.0 | 0.00 | 0.00 | 0.00 | 88 | 1021.5 |
| 20260902014651 | 67 | 38 | 0.0 | 3.0 | 0.00 | 0.00 | 0.00 | 88 | 1021.3 |
| 20260902013142 | 68 | 38 | 1.0 | 3.0 | 0.00 | 0.00 | 0.00 | 87 | 1021.4 |
| 20260902011652 | 68 | 17 | 0.0 | 3.0 | 0.00 | 0.00 | 0.00 | 87 | 1021.5 |
| 20260902010153 | 68 | 355 | 0.0 | 3.0 | 0.00 | 0.00 | 0.00 | 87 | 1021.4 |
| 20260902004651 | 68 | 30 | 0.0 | 3.0 | 0.00 | 0.00 | 0.00 | 86 | 1021.4 |
| 20260902003142 | 69 | 5 | 0.0 | 1.0 | 0.00 | 0.00 | 0.00 | 85 | 1021.6 |
| 20260902001651 | 69 | 5 | 1.0 | 3.0 | 0.00 | 0.00 | 0.00 | 86 | 1021.4 |
| 20260902000150 | 68 | 45 | 1.0 | 5.0 | 0.00 | 0.00 | 0.00 | 86 | 1021.3 |
| 20260901234650 | 69 | 31 | 0.0 | 4.0 | 0.00 | 0.00 | 0.00 | 85 | 1021.2 |
| 20260901233145 | 69 | 32 | 0.0 | 4.0 | 0.00 | 0.00 | 0.00 | 85 | 1021.1 |
| 20260901231658 | 69 | 45 | 0.0 | 3.0 | 0.00 | 0.00 | 0.00 | 85 | 1021.1 |
| 20260901230153 | 69 | 45 | 0.0 | 3.0 | 0.00 | 0.00 | 0.00 | 84 | 1021.0 |
| 20260901224653 | 69 | 45 | 0.0 | 3.0 | 0.00 | 0.00 | 0.00 | 84 | 1020.8 |
| 20260901223141 | 70 | 63 | 0.0 | 3.0 | 0.00 | 0.00 | 0.00 | 83 | 1020.6 |
| 20260901221650 | 70 | 63 | 0.0 | 1.0 | 0.00 | 0.00 | 0.00 | 81 | 1020.5 |
| 20260901220151 | 71 | 63 | 0.0 | 0.0 | 0.00 | 0.00 | 0.00 | 81 | 1020.5 |
| 20260901214651 | 71 | 63 | 0.0 | 3.0 | 0.00 | 0.00 | 0.00 | 81 | 1020.5 |
| 20260901213142 | 71 | 63 | 0.0 | 0.0 | 0.00 | 0.00 | 0.00 | 80 | 1020.4 |
| 20260901211652 | 72 | 63 | 0.0 | 2.0 | 0.00 | 0.00 | 0.00 | 79 | 1020.1 |
| 20260901210153 | 72 | 63 | 0.0 | 1.0 | 0.00 | 0.00 | 0.00 | 79 | 1019.9 |
| 20260901204651 | 73 | 63 | 0.0 | 0.0 | 0.00 | 0.00 | 0.00 | 77 | 1020.0 |
| 20260901203143 | 74 | 63 | 0.0 | 0.0 | 0.00 | 0.00 | 0.00 | 76 | 1019.8 |
| 20260901201651 | 74 | 63 | 0.0 | 0.0 | 0.00 | 0.00 | 0.00 | 76 | 1019.6 |
| 20260901200155 | 75 | 63 | 0.0 | 2.0 | 0.00 | 0.00 | 0.00 | 74 | 1019.6 |
| 20260901194651 | 75 | 63 | 0.0 | 1.0 | 0.00 | 0.00 | 0.00 | 73 | 1019.4 |
| 20260901193144 | 76 | 63 | 0.0 | 0.0 | 0.00 | 0.00 | 0.00 | 72 | 1019.3 |
| 20260901191653 | 77 | 63 | 0.0 | 0.0 | 0.00 | 0.00 | 0.00 | 71 | 1019.3 |
| 20260901190151 | 77 | 63 | 0.0 | 0.0 | 0.00 | 0.00 | 0.00 | 70 | 1018.9 |
| 20260901184655 | 78 | 63 | 0.0 | 1.0 | 0.00 | 0.00 | 0.00 | 68 | 1018.8 |
| 20260901183142 | 79 | 63 | 0.0 | 4.0 | 0.00 | 0.00 | 0.00 | 67 | 1018.5 |
| 20260901181652 | 79 | 117 | 0.0 | 6.0 | 0.00 | 0.00 | 0.00 | 67 | 1018.7 |
| 20260901180155 | 80 | 75 | 0.0 | 4.0 | 0.00 | 0.00 | 0.00 | 66 | 1018.8 |
| 20260901174652 | 80 | 126 | 2.0 | 5.0 | 0.00 | 0.00 | 0.00 | 65 | 1018.9 |
| 20260901173146 | 81 | 105 | 3.0 | 10.0 | 0.00 | 0.00 | 0.00 | 64 | 1018.9 |
| 20260901171652 | 81 | 130 | 4.0 | 10.0 | 0.00 | 0.00 | 0.00 | 64 | 1019.2 |
| 20260901170152 | 81 | 116 | 5.0 | 14.0 | 0.00 | 0.00 | 0.00 | 63 | 1019.1 |
| 20260901164652 | 82 | 88 | 4.0 | 8.0 | 0.00 | 0.00 | 0.00 | 61 | 1019.0 |
| 20260901163144 | 83 | 139 | 1.0 | 8.0 | 0.00 | 0.00 | 0.00 | 60 | 1019.2 |
| 20260901161654 | 84 | 127 | 3.0 | 8.0 | 0.00 | 0.00 | 0.00 | 58 | 1019.5 |
| 20260901160152 | 85 | 167 | 2.0 | 7.0 | 0.00 | 0.00 | 0.00 | 57 | 1019.3 |
| 20260901154651 | 85 | 178 | 2.0 | 8.0 | 0.00 | 0.00 | 0.00 | 57 | 1019.1 |
| 20260901153144 | 84 | 194 | 4.0 | 14.0 | 0.00 | 0.00 | 0.00 | 59 | 1019.2 |
| 20260901151653 | 84 | 146 | 6.0 | 14.0 | 0.00 | 0.00 | 0.00 | 57 | 1019.3 |
| 20260901150156 | 84 | 94 | 2.0 | 12.0 | 0.00 | 0.00 | 0.00 | 57 | 1019.1 |
| 20260901144651 | 85 | 239 | 3.0 | 11.0 | 0.00 | 0.00 | 0.00 | 55 | 1019.5 |
| 20260901143139 | 86 | 111 | 3.0 | 10.0 | 0.00 | 0.00 | 0.00 | 54 | 1019.3 |
| 20260901141651 | 85 | 191 | 4.0 | 10.0 | 0.00 | 0.00 | 0.00 | 54 | 1019.6 |
| 20260901140152 | 85 | 95 | 1.0 | 10.0 | 0.00 | 0.00 | 0.00 | 55 | 1019.4 |
| 20260901134654 | 85 | 136 | 3.0 | 10.0 | 0.00 | 0.00 | 0.00 | 55 | 1019.6 |
| 20260901133140 | 84 | 189 | 3.0 | 8.0 | 0.00 | 0.00 | 0.00 | 56 | 1020.1 |
| 20260901131656 | 85 | 212 | 4.0 | 9.0 | 0.00 | 0.00 | 0.00 | 56 | 1020.3 |
| 20260901130153 | 85 | 169 | 4.0 | 15.0 | 0.00 | 0.00 | 0.00 | 56 | 1020.4 |
| 20260901124650 | 86 | 188 | 4.0 | 10.0 | 0.00 | 0.00 | 0.00 | 54 | 1020.5 |
| 20260901123141 | 86 | 247 | 3.0 | 8.0 | 0.00 | 0.00 | 0.00 | 53 | 1020.5 |
| 20260901121652 | 87 | 192 | 5.0 | 9.0 | 0.00 | 0.00 | 0.00 | 53 | 1020.6 |
| 20260901120152 | 86 | 169 | 6.0 | 15.0 | 0.00 | 0.00 | 0.00 | 53 | 1020.7 |
| 20260901114651 | 86 | 124 | 7.0 | 15.0 | 0.00 | 0.00 | 0.00 | 53 | 1020.7 |
| 20260901113148 | 86 | 116 | 6.0 | 12.0 | 0.00 | 0.00 | 0.00 | 53 | 1020.8 |
| 20260901111651 | 86 | 163 | 6.0 | 18.0 | 0.00 | 0.00 | 0.00 | 55 | 1020.9 |
| 20260901110152 | 86 | 204 | 5.0 | 14.0 | 0.00 | 0.00 | 0.00 | 52 | 1020.9 |
| 20260901103142 | 85 | 132 | 7.0 | 16.0 | 0.00 | 0.00 | 0.00 | 54 | 1021.1 |
| 20260901101652 | 84 | 170 | 6.0 | 14.0 | 0.00 | 0.00 | 0.00 | 55 | 1021.2 |
| 20260901100148 | 84 | 113 | 4.0 | 16.0 | 0.00 | 0.00 | 0.00 | 57 | 1021.2 |